Location: Chabowo
(53.2290°N, 14.7660°E)
Time: 01:54:03
(UTC+00:00)

Daily predictions for brighter satellites

Satellite Brightness Start Highest point End
(mag) Time Altitude Azimuth Time Altitude Azimuth Time Altitude Azimuth
Cosmos 2333 Rocket 4.2 02:22:34 24° NE 02:22:34 24° NE 02:24:54 10° NE
Cosmos 2360 Rocket 4.2 02:33:39 22° NNE 02:33:39 22° NNE 02:35:32 10° NNE
SL-16 R/B 4.4 02:36:56 18° NNE 02:36:56 18° NNE 02:38:31 10° NNE
Cosmos 2322 Rocket 4.3 02:38:24 19° NNE 02:38:24 19° NNE 02:40:01 10° NNE
COSMOS 2428 4.2 02:43:07 33° NE 02:43:07 33° NE 02:46:22 10° NE
USA 215 3.5 02:50:19 10° ENE 02:55:54 66° E 02:55:54 66° E
ALOS 4.2 02:56:56 10° NNE 02:59:22 26° NE 02:59:22 26° NE
CZ-2C R/B 4.2 03:03:06 10° NNE 03:05:19 26° NNE 03:05:19 26° NNE
Cosmos 1943 Rocket 3.6 03:09:37 31° NNE 03:10:55 35° NE 03:16:05 10° ESE
Cosmos 2369 Rocket 3.9 03:18:43 22° N 03:20:51 28° NE 03:25:39 10° E
Cosmos 540 Rocket 4.3 03:21:48 46° ESE 03:21:48 46° ESE 03:26:42 10° NE
Cosmos 1461 4.2 03:35:01 43° NE 03:35:01 43° NE 03:38:15 10° NE
COSMO-SKYMED 1 3.9 03:32:29 10° SE 03:35:19 37° ESE 03:35:19 37° ESE
SL-16 R/B 4.3 03:32:21 10° SSE 03:36:51 25° ESE 03:41:22 10° NE
Cosmos 2219 Rocket 2.8 03:41:52 45° N 03:41:52 45° N 03:46:02 10° NNE
Cosmos 2237 Rocket 2.5 03:43:06 49° S 03:44:29 66° ESE 03:50:09 10° NE
ERS-2 3.8 03:48:27 10° SE 03:50:34 30° ESE 03:50:34 30° ESE
Cosmos 2322 4.5 03:53:20 38° NNW 03:53:20 38° NNW 03:57:40 10° NNE
Cosmos 1953 4.0 03:56:40 26° NNE 03:56:40 26° NNE 03:58:30 10° NNE
BREEZE-M DEB (TANK) 4.3 03:55:50 44° WSW 03:56:56 46° SW 04:01:20 10° SE
Cosmos 1513 Rocket 4.3 03:57:03 34° SSW 03:59:55 78° WNW 04:06:07 10° N
Cosmos 2333 Rocket 2.9 04:04:35 39° NNW 04:04:35 39° NNW 04:09:14 10° NNE
FENGYUN 3A 3.5 03:58:48 10° NNE 04:04:12 73° WNW 04:04:53 64° WSW
Lacrosse 4 Rocket 2.4 04:04:26 32° SSE 04:05:57 45° ESE 04:10:10 10° NE
Cosmos 1763 Rocket 3.9 04:07:15 48° NNW 04:07:15 48° NNW 04:11:40 10° NNE
Cosmos 2297 3.6 04:08:14 44° NW 04:10:11 84° WSW 04:15:56 10° SSE
Cosmos 1891 Rocket 4.3 04:10:02 40° SW 04:12:10 64° WNW 04:18:12 10° N
deb Chang Zheng 4 4.4 04:08:34 10° NNE 04:12:43 50° E 04:16:50 10° S
Cosmos 2360 Rocket 3.6 04:15:25 23° NNW 04:15:25 23° NNW 04:19:17 10° NNE
SAR-Lupe-4 3.9 04:12:14 10° SSE 04:15:46 63° ENE 04:15:59 62° NE
Cosmos 1464 Rocket 3.9 04:13:47 26° SSW 04:17:19 64° WNW 04:23:30 10° N
Meteor 1-31 Rocket 2.9 04:13:52 10° NNE 04:17:17 66° N 04:17:17 66° N
Cosmos 841 Rocket 3.3 04:16:53 53° SW 04:18:02 74° WNW 04:23:14 10° NNE
Meteor 1-21 Rocket 4.3 04:17:53 49° WNW 04:18:37 52° W 04:24:15 10° S
SL-16 R/B 4.0 04:18:48 17° NNW 04:18:52 17° NNW 04:22:27 10° NNE
Cosmos 1980 3.6 04:17:06 45° SW 04:18:54 75° NW 04:24:35 10° NNE
Meteor 2-13 Rocket 4.4 04:13:24 10° NNW 04:19:26 58° W 04:25:26 10° S
Cosmos 2322 Rocket 3.9 04:20:13 17° NNW 04:20:13 17° NNW 04:23:48 10° NNE
MOS 1 Rocket 3.1 04:15:26 10° SSE 04:20:13 87° WSW 04:23:13 22° NNW
Cosmos 1346 Rocket 3.1 04:18:51 30° N 04:20:41 66° ENE 04:24:39 10° SSE
Cosmos 1758 Rocket 3.7 04:19:27 10° N 04:23:57 73° ENE 04:28:25 10° SSE
SKYMED 2 3.9 04:20:28 10° S 04:23:56 49° SSW 04:23:56 49° SSW
COSMOS 2428 3.2 04:25:09 38° NW 04:25:20 38° NW 04:30:40 10° NNE
FALCON 9 DEB 3.3 04:28:14 68° SE 04:28:14 68° SE 04:31:24 10° E
METEOR-M 4.1 04:26:05 10° N 04:31:21 59° WNW 04:34:34 23° SW
SAR-Lupe-1 3.9 04:28:32 10° SSE 04:32:08 88° WSW 04:32:40 63° NNW
Cosmos 1980 Rocket 4.3 04:30:22 11° NNW 04:32:25 13° N 04:34:57 10° NNE
ATLAS CENTAUR R/B 1.4 04:31:44 42° S 04:32:45 63° SE 04:36:25 10° NE
Cosmos 2150 Rocket 4.1 04:33:50 36° NW 04:35:47 56° WSW 04:41:03 10° S
Cosmos 1092 Rocket 3.8 04:30:27 10° NNW 04:36:36 71° W 04:42:44 10° S
Cosmos 1689 Rocket 3.4 04:33:55 10° SSE 04:35:31 30° SSE 04:35:31 30° SSE
ALOS 3.0 04:34:24 10° N 04:37:53 34° NW 04:37:53 34° NW
USA 215 3.3 04:33:25 10° ENE 04:39:54 68° N 04:43:16 31° W
Cosmos 1602 Rocket 3.7 04:40:24 45° WNW 04:41:00 48° W 04:45:18 10° SSW
Cosmos 1892 4.3 04:38:03 10° N 04:41:37 35° ENE 04:45:11 10° SE
ADEOS 3.6 04:36:36 10° N 04:41:44 58° WNW 04:46:50 10° SW
YAOGAN 6 3.6 04:39:30 10° NNE 04:43:07 49° E 04:46:43 10° S
GEOS 3 Rocket 3.6 04:38:33 10° SE 04:43:56 71° SW 04:46:52 28° NW
BREEZE-M DEB (TANK) 3.1 04:44:16 32° SSE 04:44:16 32° SSE 04:46:18 10° ESE
Meteor 2-19 Rocket 4.4 04:38:33 10° NNW 04:44:44 89° E 04:50:50 10° S
Cosmos 1908 3.3 04:45:31 49° WNW 04:45:31 49° WNW 04:49:01 10° N
Cosmos 2292 Rocket 4.2 04:42:41 10° N 04:45:31 38° ENE 04:48:36 10° SE
CZ-2C R/B 4.0 04:42:04 10° N 04:44:43 21° NW 04:44:43 21° NW
Cosmos 1328 4.3 04:46:59 39° SW 04:46:59 39° SW 04:49:59 10° SSW
Nadezhda 4 Rocket 4.3 04:41:16 10° NNW 04:46:54 40° W 04:52:31 10° SSW
USA 307 3.7 04:44:42 23° SW 04:47:00 48° SSE 04:51:05 10° ENE
NOSS 0 Rocket 4.1 04:45:40 29° WSW 04:48:33 50° NW 04:54:33 10° NNE
Cosmos 2098 Rocket 3.4 04:46:33 10° NNW 04:52:34 79° W 04:57:15 10° S
USA 305 3.5 04:50:49 22° SW 04:53:16 53° SSE 04:57:24 10° ENE
Cosmos 2263 4.5 04:48:35 13° NNW 04:53:44 69° NE 04:59:24 10° SE
Cosmos 1943 Rocket 2.2 04:51:10 20° NW 04:55:03 62° WSW 05:00:37 10° SSE
USA 308 3.5 04:53:17 21° SW 04:55:58 53° SSE 05:00:08 10° ENE
Okean O Rocket 4.0 04:52:17 10° NE 04:55:59 26° E 04:59:38 10° SSE
Cosmos 1408 4.2 04:52:44 10° N 04:56:04 34° ENE 04:59:24 10° SE
Cosmos 1400 Rocket 3.0 04:53:20 17° SW 04:56:14 49° WNW 05:00:17 10° N
Cosmos 1825 Rocket 3.5 04:52:07 10° NNW 04:56:36 76° W 05:01:03 10° S
SL-4 R/B 2.6 04:55:30 25° SW 04:57:26 49° SSE 05:01:25 10° E
Cosmos 2034 Rocket 4.2 04:52:58 10° SW 04:59:05 47° WNW 05:05:13 10° N
Meteor 1-16 Rocket 4.4 04:54:15 10° SW 05:00:02 52° WNW 05:05:49 10° N
SJ-12 4.2 04:56:08 10° N 05:00:06 44° WNW 05:04:02 10° SW
Cosmos 1570 Rocket 4.3 04:57:35 22° WSW 05:00:41 46° NW 05:05:46 10° NNE
CZ-2C R/B 2.8 04:57:26 10° SSE 05:02:43 77° ENE 05:08:10 10° NNW
H-2A R/B 4.1 04:59:02 10° NNE 05:03:20 41° E 05:07:35 10° S
Cosmos 540 Rocket 4.0 05:01:40 27° W 05:03:32 36° NW 05:08:18 10° NNE
Envisat 3.1 04:59:11 10° NNE 05:04:18 79° ESE 05:09:24 10° SSW
Cosmos 1125 Rocket 3.9 05:01:52 20° NW 05:05:13 44° WSW 05:10:12 10° S
USA 306 3.3 05:02:37 19° SW 05:05:30 59° SSE 05:09:41 10° ENE
Cosmos 2369 Rocket 2.1 05:00:31 13° NNW 05:05:31 81° WSW 05:11:07 10° SSE
Cosmos 1814 Rocket 4.3 05:03:50 18° WSW 05:07:21 44° NW 05:12:17 10° NNE
NOSS 3-2 (A) 3.5 05:01:34 10° SW 05:07:23 84° SE 05:14:13 10° NE
Cosmos 1634 Rocket 3.9 05:03:01 10° SSW 05:09:11 75° WNW 05:15:25 10° N
CZ-4B R/B 2.8 05:05:44 10° N 05:09:15 48° WNW 05:12:52 10° SW
Cosmos 1461 4.2 05:11:23 23° WNW 05:13:08 29° NNW 05:17:18 10° NE
COSMO-SKYMED 1 3.8 05:09:43 10° SW 05:12:34 22° WSW 05:12:34 22° WSW
Cosmos 2266 Rocket 4.3 05:10:14 10° N 05:16:17 66° ENE 05:22:16 10° SSE
Cosmos 2228 2.8 05:15:01 10° SSW 05:19:14 73° WNW 05:23:30 10° N
CZ-4B R/B 4.4 05:14:30 10° NNE 05:20:00 48° E 05:25:23 10° S
SL-16 R/B 2.1 05:14:48 10° SW 05:20:28 72° NW 05:26:10 10° NNE
NOSS 3-2 (C) 3.8 05:15:18 10° SSW 05:21:02 69° SE 05:27:44 10° NE
DMSP B5D2-2 4.2 05:16:05 10° SSE 05:21:20 79° ENE 05:26:39 10° NNW
Cosmos 1953 Rocket 3.5 05:17:36 10° NNW 05:21:55 63° W 05:26:13 10° S
Cosmos 2026 Rocket 4.3 05:16:40 10° NNW 05:22:40 45° W 05:28:40 10° SSW
ERBS 4.4 05:21:00 10° SSW 05:23:48 26° SE 05:26:35 10° E
Cosmos 972 Rocket 4.3 05:18:50 10° SW 05:24:51 58° WNW 05:30:14 10° NNE
Cosmos 2219 Rocket 3.6 05:23:36 16° NW 05:25:41 20° NNW 05:29:42 10° NNE
ERS-2 3.7 05:23:08 10° SW 05:25:10 18° WSW 05:25:10 18° WSW
H-2A R/B 3.0 05:22:43 10° N 05:26:13 40° WNW 05:29:44 10° SW
CENTAUR R/B 2.8 05:22:13 10° SW 05:28:20 79° SE 05:35:42 10° NE
Cosmos 2237 Rocket 2.9 05:24:58 15° W 05:28:58 34° NW 05:34:09 10° NNE
Meteor PRIRODA 4.3 05:27:36 10° N 05:30:51 31° WNW 05:34:04 10° SW
Cosmos 1953 4.1 05:32:23 14° NW 05:32:23 14° NW 05:33:49 10° NNW
Cosmos 1656 Rocket 3.6 05:26:25 10° NNW 05:31:55 84° WSW 05:37:20 10° SSE
CZ-4 R/B 4.5 05:29:39 10° NE 05:32:01 15° E 05:34:23 10° SE
Cosmos 1825 2.8 05:29:53 10° N 05:33:38 57° ENE 05:37:22 10° SSE
NOAA 6 4.0 05:30:03 10° NNE 05:35:16 83° WNW 05:40:28 10° SSW
Cosmos 1606 Rocket 3.5 05:31:28 10° SSW 05:35:43 57° WNW 05:40:02 10° N
Cosmos 2058 3.1 05:33:42 10° N 05:37:51 77° ENE 05:41:57 10° SSE
Cosmos 1455 3.2 05:35:42 10° S 05:39:19 50° E 05:42:59 10° NNE
AQUARIUS 4.4 05:35:38 10° NNE 05:40:10 77° ESE 05:44:40 10° S
FALCON 9 DEB 4.2 05:39:28 10° SW 05:42:23 38° SSE 05:45:18 10° E
Lacrosse 4 Rocket 2.2 05:40:47 10° WSW 05:44:47 35° NW 05:48:53 10° NNE
Cosmos 1300 3.4 05:44:19 10° SW 05:47:44 31° WNW 05:51:12 10° N
Cosmos 2333 Rocket 3.9 05:46:36 11° NW 05:49:45 17° NNW 05:53:21 10° NNE
Cosmos 1655 Rocket 4.0 05:45:25 10° NNW 05:51:37 65° W 05:57:49 10° S
Meteor 2-21 4.5 05:45:42 10° NNW 05:51:54 75° W 05:58:05 10° S
Cosmos 1315 Rocket 3.3 05:48:44 10° SW 05:52:20 35° WNW 05:56:00 10° N
PAYLOAD B 4.2 05:48:07 10° NNE 05:53:44 78° WNW 05:59:19 10° SSW
NOAA 11 4.3 05:48:33 10° NNE 05:54:04 84° ESE 05:59:31 10° SSW
Cosmos 1346 Rocket 4.5 05:54:23 10° NW 05:56:33 15° W 05:58:49 10° WSW
Cosmos 2360 Rocket 4.2 05:58:30 10° NNW 06:01:05 13° N 06:03:40 10° NNE
Meteor 2-14 Rocket 4.5 05:55:17 10° NNW 06:01:23 67° W 06:07:28 10° S
ATLAS 3B R/B 4.1 05:55:28 10° S 06:01:31 41° ESE 06:07:44 10° NE
NOAA 12 4.1 05:57:00 10° NNE 06:02:17 71° WNW 06:07:33 10° SSW
USA 238 DEB 3.7 05:56:41 10° WSW 06:03:20 67° NW 06:10:23 10° NE
USA 238 3.7 05:56:48 10° WSW 06:03:26 68° NW 06:10:29 10° NE
FALCON 9 DEB 3.1 06:01:30 10° W 06:04:55 84° S 06:08:21 10° E
Cosmos 783 Rocket 4.5 06:00:17 10° SSW 06:05:29 84° WNW 06:10:45 10° NNE
SL-16 R/B 4.3 06:02:48 10° NNW 06:05:30 13° N 06:08:12 10° NE
Cosmos 2322 Rocket 4.2 06:04:11 10° NNW 06:06:37 13° N 06:09:05 10° NNE
Cosmos 2151 3.8 06:04:08 10° N 06:08:20 53° ENE 06:12:29 10° SSE
Cosmos 1441 Rocket 3.7 06:04:42 10° NNW 06:08:28 42° W 06:12:09 10° SSW
COSMOS 2428 4.4 06:07:51 10° WNW 06:11:19 16° NNW 06:14:48 10° NNE
ATLAS CENTAUR R/B 2.2 06:08:43 10° W 06:11:54 27° NNW 06:15:08 10° NNE
SL-19 R/B 4.5 06:08:50 10° N 06:12:32 42° WNW 06:15:46 10° SW
FengYun 1-2 T 4.3 06:07:30 10° NNE 06:13:12 80° WNW 06:18:51 10° SSW
MOS 1-B 4.5 06:09:41 10° N 06:15:19 56° WNW 06:20:57 10° SW
